カタログに戻る

STARLINK-36341

運用中通信VLEO
NORAD 67918·PAYLOAD·🇺🇸 United States

打ち上げ Feb 22, 2026 から Vandenberg Space Force Base

Loading…

次のパス (今後24時間)

TLE

最新Source: CelesTrak SupGP

元期: Sep 15, 2026, 04:08 UTC

1 67918C 26036Q   26258.17270833 -.00026842  00000+0 -97242-3 0  2580
2 67918  42.9990 255.6024 0001293 268.5160 182.5236 15.27584855    11

AllMySatでSTARLINK-36341をリアルタイム追跡

Download on the App Store